Regional Weather Roundup
Issued by NWS

Home | Current Version | Previous Version | Text Only | Print | Product List | Glossary Off
Versions: 1 2 3 4 5 6 7 8 9 10 11 12 13 14 15 16 17 18 19 20 21 22 23 24 25 26 27 28 29 30 31 32 33 34 35 36 37 38 39 40 41 42 43 44 45 46 47 48 49 50

677
ASUS43 KMPX 201001
RWRMN
WEATHER ROUNDUP FOR MINNESOTA
NATIONAL WEATHER SERVICE TWIN CITIES/CHANHASSEN MN
400 AM CST MON FEB 20 2017


NOTE: "FAIR" INDICATES FEW OR NO CLOUDS BELOW 12,000 FEET WITH NO
SIGNIFICANT WEATHER AND/OR OBSTRUCTIONS TO VISIBILITY. N/A MEANS
CURRENT SKY AND/OR WEATHER CONDITIONS ARE NOT AVAILABLE.

MNZ060>063-068>070-201100-
   Twin Cities Metro

CITY           SKY/WX    TMP DP  RH WIND       PRES   REMARKS
TWIN CITIES    CLOUDY    51  42  71 SE16G23   29.84F
ST PAUL        CLOUDY    49  41  74 SE15      29.86S
CRYSTAL        CLOUDY    64  41  42 SE14G21   29.82R
BLAINE         MOCLDY    52  43  71 SE15      29.83R
LAKEVILLE      CLOUDY    48  45  87 SE5       29.84S
EDEN PRAIRIE   CLOUDY    51  43  74 SE8       29.80F
SOUTH ST PAUL  CLOUDY    49  40  72 S5        29.85S
LAKE ELMO      FAIR      52  43  71 SE12      29.87R
$$
MNZ001>005-007-008-013>017-022>024-027-028-201100-
   Northwest Minnesota

CITY           SKY/WX    TMP DP  RH WIND       PRES   REMARKS
BEMIDJI        CLOUDY    39  34  81 SE8       29.70R
HALLOCK        CLOUDY    39  36  87 SE9       29.59S
ROSEAU         CLOUDY    43  36  75 SE12      29.63F
WARROAD        PTCLDY    39  36  87 E7        29.66F
THIEF RVR FALL CLOUDY    40  37  89 SE14      29.62F
CROOKSTON      LGT RAIN  46  45  93 S16       29.59S
FOSSTON        CLOUDY    45  39  81 SE10      29.64R
DETROIT LAKES  CLOUDY    46  45  93 SE12      29.67S FOG
MOORHEAD       CLOUDY    52  48  87 S21       29.63R
PARK RAPIDS    MOCLDY    43  38  82 S7        29.71R
MAHNOMEN       CLOUDY    49  47  90 SE13G18   29.62S
$$
MNZ006-009>011-018-025>026-201100-
   North Central Minnesota

CITY           SKY/WX    TMP DP  RH WIND       PRES   REMARKS
BAUDETTE       PTCLDY    41  32  70 SE12      29.67F
FLAG ISLAND    PTCLDY    37  30  75 SE7       29.67F
INTL FALLS     CLOUDY    43  32  65 SE12      29.74F
WASKISH        MOCLDY    45  36  70 SE15      29.68F
BIG FORK       PTCLDY    43  34  70 SE8       29.76F
LONGVILLE      DRIZZLE   43  36  75 E7        29.74F
GRAND RAPIDS   CLOUDY    41  33  73 SE9       29.81F
CRANE LAKE     CLOUDY    41  32  70 SE5       29.84F
ORR            CLOUDY    43  30  61 SE12      29.78F
COOK           CLOUDY    45  34  65 SE9       29.82F
WALKER         PTSUNNY   41  36  80 SE5       29.71F
$$
MNZ012-019>021-037-201100-
   Northeast Minnesota

CITY           SKY/WX    TMP DP  RH WIND       PRES   REMARKS
DULUTH         CLOUDY    39  32  76 E16       29.87F
ELY            CLOUDY    39  30  70 SE12G17   29.88F
HIBBING        MOCLDY    40  33  76 SE13      29.82F
EVELETH        CLOUDY    42  30  62 SE3       29.86F
DULUTH HARBOR  CLOUDY    36  34  93 NE16      29.93F
TWO HARBORS    CLOUDY    41  34  75 E8        29.90F
GRAND MARAIS     N/A     38  31  76 NE14G23   30.04F
G MARAIS ARPRT CLOUDY    34  27  75 E12       30.01F WCI  25
$$
MNZ029>031-032-039>041-046>048-054>057-064-201100-
   West Central Minnesota

CITY           SKY/WX    TMP DP  RH WIND       PRES   REMARKS
FERGUS FALLS   MOCLDY    50  46  87 SE14      29.70R
WHEATON        CLOUDY    48  46  93 SE16      29.65F
MORRIS         CLOUDY    48  46  93 SE8       29.69R
ALEXANDRIA     CLOUDY    48  46  93 SE12      29.72R
ELBOW LAKE     FAIR      49  47  93 SE17      29.68S
WADENA         CLOUDY    43  41  93 SE9       29.70S
GLENWOOD       CLOUDY    52  46  82 S13       29.73S
APPLETON       CLOUDY    54  46  76 SE9       29.68F
BENSON         CLOUDY    54  45  71 S16G23    29.71F
ORTONVILLE       N/A     48  45  87 CALM      29.66F
WILLMAR        FAIR      52  48  87 S10       29.75F
$$
MNZ033>034-036-042>043-049>051-058-059-201100-
   Central Minnesota

CITY           SKY/WX    TMP DP  RH WIND       PRES   REMARKS
ST CLOUD       CLOUDY    47  43  86 SE9       29.78R
SAUK CENTRE    FAIR      46  44  91 SE5       29.74S
PAYNESVILLE    CLOUDY    49  45  84 SE13      29.75S
AITKIN         CLOUDY    46  34  61 SE12      29.80R
PINE RIVER     CLOUDY    43  37  81 SE12      29.78F
BRAINERD       CLOUDY    43  36  76 SE10      29.78F
STAPLES        MOCLDY    45  43  93 SE6       29.73S
LONG PRAIRIE   FAIR      45  43  93 E9        29.74F
LITTLE FALLS   CLOUDY    45  39  81 SE5       29.77R
LITCHFIELD     CLOUDY    52  46  82 SE7       29.77S
BUFFALO        CLOUDY    53  44  72 S9        29.81R
MAPLE LAKE     CLOUDY    51  46  82 S7        29.81R
HUTCHINSON     CLOUDY    50  47  87 SE7       29.79S
$$
MNZ037-044-045-052-053-201100-
   East Central Minnesota

CITY           SKY/WX    TMP DP  RH WIND       PRES   REMARKS
PRINCETON      CLOUDY    54  45  71 SE8       29.80S
MORA           CLOUDY    43  36  75 E5        29.83F
CAMBRIDGE      CLOUDY    54  43  66 SE10G16   29.79F
RUSH CITY      CLOUDY    50  39  66 S14       29.83S
MOOSE LAKE     CLOUDY    34  32  93 NE3       29.84S
HINCKLEY       FAIR      46  37  71 E5        29.84S
CLOQUET        CLOUDY    36  30  80 E9        29.87F
MCGREGOR       CLOUDY    41  34  75 E6        29.84R
$$
MNZ071>073-080-081-089-090-097-098-201100-
   Southwest Minnesota

CITY           SKY/WX    TMP DP  RH WIND       PRES   REMARKS
MONTEVIDEO     MOCLDY    54  48  82 S10       29.72F
GRANITE FALLS  MOCLDY    53  49  87 SE13      29.73F
CANBY          CLOUDY    56  51  84 SE13      29.66F
MARSHALL       MOCLDY    55  51  86 S14G22    29.70F
REDWOOD FALLS  MOCLDY    51  46  83 SE16      29.74S
OLIVIA         CLOUDY    52  46  82 S12G18    29.74F
PIPESTONE      CLOUDY    52  46  82 S15       29.72S HAZE
WINDOM         MOCLDY    52  48  87 S14       29.76S
WORTHINGTON    CLOUDY    50  48  93 S15       29.74S
JACKSON        CLOUDY    50  45  81 S15G22    29.78S
TRACY          MOCLDY    52  49  90 S13       29.72S
SLAYTON        MOCLDY    52  50  93 S15       29.74R
$$
MNZ065>067-074>077-082>085-091>093-201100-
   South Central Minnesota

CITY           SKY/WX    TMP DP  RH WIND       PRES   REMARKS
MANKATO          N/A     50  45  83 SE15      29.81F
NEW ULM        CLOUDY    52  45  76 S12       29.79F
ST JAMES       MOCLDY    48  45  87 SE12      29.80S
FAIRMONT       MOCLDY    48  45  89 SE12      29.80F
GLENCOE        CLOUDY    54  49  84 S9G18     29.79R
FARIBAULT      CLOUDY    54  46  76 S10       29.85F
OWATONNA       CLOUDY    52  45  76 SE17G26   29.85F
WASECA         CLOUDY    48  43  81 SE13      29.85F
ALBERT LEA     CLOUDY    48  45  87 S12       29.86F
$$
MNZ078>079-086>088-094>096-201100-
   Southeast Minnesota

CITY           SKY/WX    TMP DP  RH WIND       PRES   REMARKS
ROCHESTER      CLOUDY    48  44  86 S16       29.89S
RED WING       MOCLDY    54  41  62 SE8       29.89R
STANTON        MOCLDY    51  43  75 S7        29.84S
DODGE CENTER   CLOUDY    45  41  87 SE8       29.88R
WINONA         MOCLDY    45  37  76 SW3       29.93S
AUSTIN         CLOUDY    48  43  81 SE8       29.88F
PRESTON        CLOUDY    49  42  79 SE12      29.92R
$$
ABBREVIATIONS USED IN REMARKS
   TC - TEMPERATURES IN CELSIUS
  WCI - WIND CHILL INDEX
   HX - HEAT INDEX
  VSB - VISIBILITY
$$




USA.gov is the U.S. government's official web portal to all federal, state and local government web resources and services.